260  
AXUS43 KGID 241902  
MISGRI  
 
GID CWA HOURLY WEATHER ROUNDUP  
NATIONAL WEATHER SERVICE HASTINGS NE  
100 PM CST SAT FEB 24 2018  
 
NOTE: "FAIR" INDICATES FEW OR NO CLOUDS BELOW 12,000 FEET WITH NO  
SIGNIFICANT WEATHER AND/OR OBSTRUCTIONS TO VISIBILITY.  
   
..SOUTH CENTRAL NEBRASKA
 
 
 
CITY SKY/WX TMP DP RH WIND PRES REMARKS  
GRAND ISLAND CLOUDY 24 21 88 S3 29.79F FOG  
KEARNEY FLURRIES 29 25 85 SW7 29.77F WCI 22  
HASTINGS CLOUDY 24 19 81 SW3 29.79F  
ORD CLOUDY 25 21 85 S9 29.75F WCI 15  
YORK PTSUNNY 25 25 100 CALM 29.79F  
AURORA CLOUDY 23 20 88 CALM 29.79F  
LEXINGTON LGT SNOW 30 27 88 W12 29.75F WCI 21  
HOLDREGE CLOUDY 29 28 94 SW9 29.76F WCI 21  
HEBRON CLOUDY 28 24 88 CALM 29.80F  
   
..NEBRASKA PANHANDLE
 
 
 
CITY SKY/WX TMP DP RH WIND PRES REMARKS  
CHADRON SUNNY 24 11 57 W16 29.75F WCI 11  
ALLIANCE SUNNY 26 15 63 W22 29.71S WCI 12  
SCOTTSBLUFF SUNNY 30 11 45 W28G41 29.73F WCI 15  
SIDNEY SUNNY 32 9 38 NW33G49 29.74F WCI 17  
   
..WESTERN AND NORTH CENTRAL NEBRASKA
 
 
 
CITY SKY/WX TMP DP RH WIND PRES REMARKS  
VALENTINE CLOUDY 31 23 72 W10 29.65F WCI 22  
AINSWORTH PTSUNNY 26 21 82 SW14 29.66F WCI 14  
ONEILL CLOUDY 21 20 96 S9 29.73F WCI 11  
BROKEN BOW LGT SNOW 26 23 88 SW10 29.72F FOG WCI 16  
IMPERIAL SUNNY 34 14 43 NW25G35 29.75S WCI 21  
NORTH PLATTE MOSUNNY 30 22 72 W14 29.73F WCI 19  
MCCOOK MOSUNNY 33 27 78 W17 29.76F WCI 22  
   
..EASTERN NEBRASKA
 
 
 
CITY SKY/WX TMP DP RH WIND PRES REMARKS  
NORFOLK CLOUDY 23 21 92 S6 29.75F WCI 16  
SO SIOUX CITY CLOUDY 24 19 81 NE5 29.80F WCI 18  
TEKAMAH LGT SNOW 26 23 88 N5 29.81F VSB 3/4 WCI 20  
COLUMBUS CLOUDY 32 22 66 CALM 29.80F  
ALBION CLOUDY 23 21 93 S3 29.77F FOG  
OMAHA EPPLEY FRZ DRZL 29 27 92 NW3 29.80F FOG  
OFFUTT AFB FRZ RAIN 29 28 98 CALM 29.79F FOG  
MILLARD MIX PCPN 30 28 93 CALM 29.80F  
LINCOLN LGT SNOW 27 25 92 CALM 29.81F FOG  
NEBRASKA CITY LGT SNOW 30 30 100 NW5 29.78F VSB 1 WCI 25  
BEATRICE LGT SNOW 30 29 96 NW8 29.79F VSB 1 WCI 23  
FALLS CITY FOG 31 30 96 W7 29.80S VSB 1 WCI 24  
   
..NORTHERN KANSAS
 
 
 
CITY SKY/WX TMP DP RH WIND PRES REMARKS  
GOODLAND SUNNY 40 15 36 NW31G40 29.76F WCI 28  
HILL CITY CLOUDY 32 31 96 W7 29.79F WCI 26  
NORTON CLOUDY 34 27 75 W7 29.76F WCI 28  
PHILLIPSBURG CLOUDY 30 30 100 SW6 29.81F WCI 24  
SMITH CENTER CLOUDY 27 25 93 SW3 29.81F FOG  
BELOIT CLOUDY 27 25 93 CALM 29.84F  
HAYS CLOUDY 33 30 88 W13 29.82F WCI 24  
RUSSELL FOG 32 31 96 W8 29.80F VSB 1/4 WCI 25  
CONCORDIA CLOUDY 29 27 92 NW9 29.80F WCI 20  
SALINA CLOUDY 34 32 92 NW12 29.83F WCI 25  
TOPEKA LGT RAIN 38 38 100 W6 29.76F FOG WCI 33  
 
CLICK HERE TO GO TO PREVIOUS BULLETINS.

The Nexlab NE Page
The Nexlab KS Page Main Text Page